Temp
52 50 49 49 47 47 46 47 44 44 45 44 45 45 44 43 43 42 42 41 41 38 37 37 39 38 38 37 36 37 36 36
50 49 47 47 46 46 45 45 43 42 42 41 41 41 42 41 42 42 41 39 39 37 36 36 37 35 36 36 36 35 36 36
48 46 44 44 43 44 43 43 42 41 39 41 39 40 40 40 39 39 39 38 38 38 36 35 36 34 34 33 33 33 34 35
45 45 42 40 41 41 42 41 41 41 40 40 40 40 40 38 37 36 36 38 38 36 36 35 37 34 32 32 32 33 31 34
45 43 40 39 38 40 40 41 40 42 40 38 35 34 33 35 35 35 35 36 36 36 35 35 34 35 32 31 33 32 32 29
42 40 39 39 38 37 38 39 40 39 38 37 35 33 35 35 35 34 34 34 35 35 35 34 33 35 32 31 31 31 32 30
42 42 41 38 37 37 37 38 38 39 38 37 35 33 34 33 32 32 33 34 33 34 34 33 32 33 31 30 31 30 31 32
40 38 37 38 37 36 39 38 38 39 37 36 35 34 34 32 31 31 31 33 32 32 32 32 31 32 31 29 29 30 31 31
39 39 38 38 37 37 37 38 38 38 37 36 35 35 33 33 32 31 32 32 30 31 31 32 32 32 30 29 28 28 29 30
39 39 38 38 36 37 37 37 37 36 36 35 34 34 33 32 32 32 31 31 35 32 30 30 31 31 30 28 27 27 28 30
39 38 38 38 37 37 37 37 36 35 35 34 35 33 34 33 32 32 32 31 31 31 31 30 30 30 29 28 27 28 27 30
39 38 38 39 38 36 36 36 36 35 34 34 33 33 33 33 32 32 31 31 31 31 31 30 30 29 29 29 28 29 27 26
39 38 38 38 37 36 35 35 35 35 35 34 32 33 32 31 32 33 32 32 32 32 31 30 30 29 29 29 28 28 28 27
38 38 38 38 37 36 36 35 35 35 35 33 31 31 31 30 30 32 33 32 33 31 31 29 28 29 29 29 29 28 28 28
38 37 37 37 37 37 36 36 35 35 35 33 31 30 31 30 31 31 32 33 32 31 29 28 29 29 30 30 29 27 27 29
39 37 35 36 36 36 36 36 35 35 34 32 31 31 32 31 32 31 31 31 31 31 29 27 28 29 31 29 28 26 26 27
40 40 39 39 38 36 37 35 35 34 33 32 33 32 32 31 31 30 30 30 29 28 27 26 25 29 31 32 31 26 26 27
39 39 38 38 37 37 34 34 34 33 32 33 33 32 31 30 30 29 28 27 27 27 27 26 25 25 31 32 31 27 26 25
38 37 37 37 36 35 34 35 33 32 30 31 31 31 30 29 28 26 25 25 24 25 25 25 25 27 31 32 31 27 27 27
MSLP
1028.72 1029.21 1029.36 1029.54 1029.68 1029.87 1030.04 1029.88 1029.96 1029.77 1029.60 1029.27 1028.98 1028.53 1028.22 1028.31 1028.12 1027.85 1027.56 1027.24 1026.76 1026.45 1025.98 1025.55 1025.02 1024.30 1023.55 1023.06 1022.47 1021.77 1020.97 1020.13
1029.07 1029.53 1029.72 1029.84 1030.06 1030.35 1030.42 1030.28 1030.35 1030.36 1030.21 1029.86 1029.52 1029.37 1028.95 1028.92 1028.87 1028.57 1028.18 1027.43 1026.91 1026.61 1026.20 1025.70 1025.43 1024.96 1024.25 1023.48 1022.82 1021.95 1020.94 1020.33
1029.56 1029.95 1030.23 1030.36 1030.69 1030.90 1030.91 1030.88 1030.85 1030.70 1030.59 1030.06 1029.92 1029.55 1029.27 1029.15 1029.03 1028.93 1028.63 1028.01 1027.28 1026.60 1026.38 1025.95 1025.64 1025.38 1024.67 1023.95 1023.24 1022.33 1021.53 1020.81
1029.73 1030.40 1030.77 1030.97 1031.27 1031.50 1031.45 1031.32 1031.09 1030.94 1030.72 1030.42 1030.05 1029.62 1029.31 1029.47 1029.46 1029.41 1028.96 1028.34 1027.72 1027.18 1026.59 1026.15 1025.57 1025.56 1025.07 1024.36 1023.62 1022.90 1021.95 1021.14
1029.91 1030.76 1031.29 1031.57 1031.94 1031.90 1031.71 1031.62 1031.37 1031.06 1030.95 1030.85 1030.70 1030.65 1030.30 1030.00 1029.85 1029.69 1029.21 1028.63 1027.95 1027.44 1026.88 1026.41 1025.99 1025.55 1025.30 1024.57 1023.83 1023.34 1022.67 1021.65
1030.40 1031.15 1031.61 1031.97 1032.11 1032.17 1032.00 1031.78 1031.57 1031.49 1031.25 1031.04 1030.87 1030.88 1030.73 1030.45 1030.22 1029.87 1029.48 1028.78 1028.15 1027.66 1027.26 1026.79 1026.33 1025.61 1025.38 1024.81 1024.11 1023.44 1022.80 1022.14
1030.73 1031.34 1031.82 1032.11 1032.32 1032.22 1032.11 1031.97 1031.86 1031.56 1031.33 1031.30 1031.17 1031.13 1031.01 1030.81 1030.51 1030.22 1029.84 1029.28 1028.58 1027.99 1027.52 1027.08 1026.62 1025.88 1025.59 1025.02 1024.33 1023.69 1023.03 1022.13
1030.97 1031.58 1032.08 1032.38 1032.50 1032.47 1032.16 1032.07 1031.93 1031.69 1031.63 1031.59 1031.43 1031.45 1031.33 1031.16 1030.81 1030.29 1029.82 1029.41 1029.09 1028.36 1027.88 1027.40 1026.90 1026.24 1025.79 1025.15 1024.47 1023.82 1023.11 1022.31
1031.14 1031.75 1032.22 1032.45 1032.61 1032.57 1032.38 1032.20 1032.16 1032.05 1032.05 1032.05 1031.70 1031.52 1031.24 1030.99 1030.73 1030.14 1029.79 1029.53 1029.04 1028.53 1028.10 1027.59 1027.01 1026.37 1025.82 1025.16 1024.48 1023.86 1023.12 1022.40
1031.31 1031.89 1032.24 1032.34 1032.42 1032.41 1032.33 1032.37 1032.41 1032.45 1032.38 1032.13 1032.13 1032.06 1031.57 1031.19 1030.99 1030.41 1030.08 1029.56 1028.72 1028.46 1028.06 1027.62 1027.17 1026.54 1025.92 1025.21 1024.56 1023.87 1023.21 1022.40
1031.52 1031.94 1032.14 1032.20 1032.24 1032.31 1032.46 1032.47 1032.54 1032.66 1032.61 1032.31 1032.25 1032.33 1031.93 1031.18 1030.66 1030.16 1029.83 1029.40 1028.94 1028.42 1027.98 1027.62 1027.29 1026.73 1025.96 1025.24 1024.48 1023.76 1023.23 1022.40
1031.35 1031.80 1032.05 1032.16 1032.26 1032.44 1032.67 1032.62 1032.66 1032.92 1032.90 1032.68 1032.41 1032.58 1032.17 1031.72 1030.97 1030.40 1029.69 1029.28 1028.75 1028.32 1028.01 1027.79 1027.39 1026.78 1026.02 1025.22 1024.46 1023.78 1023.18 1022.51
1031.19 1031.72 1032.05 1032.14 1032.32 1032.59 1032.88 1032.87 1032.80 1032.98 1033.12 1033.18 1033.01 1032.61 1032.21 1031.70 1031.11 1030.48 1029.78 1029.19 1028.62 1028.30 1028.14 1028.00 1027.51 1026.90 1026.14 1025.34 1024.58 1023.87 1023.19 1022.67
1031.13 1031.63 1031.93 1032.11 1032.42 1032.69 1032.81 1032.94 1033.05 1033.22 1033.28 1033.28 1033.17 1032.78 1032.38 1031.92 1031.20 1030.52 1029.83 1029.31 1028.74 1028.44 1028.30 1028.29 1027.71 1027.01 1026.22 1025.50 1024.79 1024.14 1023.46 1023.00
1030.91 1031.57 1032.01 1032.30 1032.47 1032.60 1032.80 1033.08 1033.25 1033.37 1033.41 1033.49 1033.32 1033.01 1032.45 1031.95 1031.34 1030.68 1030.09 1029.65 1029.09 1028.65 1028.65 1028.61 1027.99 1027.21 1026.46 1025.68 1025.00 1024.40 1023.78 1023.21
1030.97 1031.60 1032.02 1032.28 1032.48 1032.94 1033.19 1033.28 1033.35 1033.54 1033.72 1033.71 1033.60 1033.30 1032.68 1032.06 1031.57 1031.10 1030.49 1030.07 1029.61 1029.12 1028.99 1028.91 1028.39 1027.46 1026.63 1025.83 1025.18 1024.67 1024.04 1023.34
1030.89 1031.51 1032.05 1032.40 1032.69 1033.03 1033.36 1033.44 1033.76 1033.73 1033.86 1033.82 1033.68 1033.33 1032.94 1032.55 1032.15 1031.72 1031.08 1030.68 1030.24 1029.76 1029.42 1029.20 1028.81 1028.00 1026.97 1026.06 1025.32 1024.90 1024.26 1023.50
1031.04 1031.63 1032.17 1032.43 1032.63 1033.00 1033.53 1033.97 1033.93 1034.18 1034.10 1033.85 1033.66 1033.35 1033.04 1032.64 1032.55 1032.25 1031.65 1031.24 1030.86 1030.41 1029.97 1029.54 1029.18 1028.47 1027.20 1026.21 1025.55 1025.13 1024.49 1023.84
1031.27 1031.77 1032.27 1032.55 1032.92 1033.43 1033.77 1034.12 1034.27 1034.36 1034.31 1034.33 1034.06 1033.66 1033.50 1033.01 1032.92 1032.70 1032.26 1031.85 1031.52 1031.01 1030.51 1030.07 1029.54 1028.75 1027.50 1026.41 1025.75 1025.29 1024.62 1023.99
Wind_Speed
9 12 11 10 9 9 9 8 7 7 6 6 6 6 5 5 6 7 9 8 10 9 8 10 11 10 9 10 13 11 10 11
10 10 8 10 10 10 7 10 8 5 5 7 6 7 6 4 4 8 8 8 11 9 8 9 10 10 12 12 11 14 10 12
11 9 8 10 8 7 7 7 7 5 3 5 3 4 3 2 3 5 7 9 9 10 9 8 9 9 12 12 12 10 9 10
11 10 8 7 9 7 6 6 7 6 6 4 4 4 3 4 4 3 4 6 7 8 10 9 11 7 9 11 11 13 10 10
11 9 9 8 6 6 7 7 7 7 7 6 6 4 3 3 4 3 4 6 6 7 8 10 9 6 11 10 10 10 9 10
11 9 9 7 7 6 6 6 6 6 6 6 4 4 3 3 3 6 5 5 6 7 8 10 9 9 11 11 13 12 8 5
11 9 8 6 5 6 5 5 4 5 6 7 7 7 6 5 5 4 6 5 5 7 8 9 8 8 12 9 11 11 11 7
9 9 6 5 6 5 4 5 5 6 7 6 7 7 6 6 5 4 6 6 4 7 7 9 8 9 10 9 9 11 10 11
9 7 6 5 5 3 4 6 6 7 7 6 6 6 3 3 4 3 5 5 4 6 6 8 10 9 10 10 7 7 9 10
9 7 6 4 4 2 3 6 6 6 6 5 6 6 6 5 6 5 4 5 5 6 6 7 9 10 11 10 7 9 9 10
7 6 5 3 3 2 5 5 5 5 5 5 5 5 6 6 5 6 6 5 6 6 8 7 7 10 12 10 9 9 9 9
7 6 5 3 3 5 5 5 7 6 5 5 6 6 6 6 5 6 6 6 6 6 6 6 8 11 12 13 11 11 10 9
7 6 5 3 5 6 5 5 6 5 5 6 6 5 6 6 7 8 8 8 8 7 6 5 8 10 12 14 12 12 11 8
7 6 4 5 5 5 5 5 6 5 5 5 5 5 6 7 7 9 9 9 9 7 5 7 8 11 13 13 12 11 11 8
7 5 5 5 5 5 5 5 5 5 5 5 5 5 6 6 7 9 10 10 9 6 5 7 9 10 13 13 12 11 11 8
7 5 5 4 5 5 5 5 5 5 5 5 6 6 6 7 9 10 10 10 9 7 5 5 10 10 12 15 11 11 10 7
8 6 6 5 5 5 5 6 6 5 5 5 5 6 7 9 9 9 9 9 9 7 7 6 10 9 24 24 17 10 10 10
8 6 6 5 5 6 7 5 5 5 5 5 6 7 7 8 8 9 9 9 9 9 9 6 10 11 25 24 22 9 9 10
7 6 5 5 6 8 7 6 6 5 5 5 6 6 7 7 9 9 9 7 8 7 9 10 9 11 24 24 20 9 9 10
Wind_Direction
108 90 84 78 73 68 64 41 29 23 16 2 359 359 356 44 32 36 23 21 20 12 1 357 354 349 349 347 343 343 327 331
98 91 84 79 72 64 53 36 17 19 12 10 10 359 352 37 28 32 27 30 18 13 4 2 353 354 356 346 342 341 337 337
101 90 76 70 70 64 51 41 35 29 4 9 0 342 341 15 33 23 18 24 17 15 6 3 350 353 353 349 342 341 338 346
112 97 82 74 60 44 56 41 47 31 8 357 353 340 356 1 12 346 347 6 6 4 8 2 359 357 350 343 341 343 338 345
111 99 85 72 55 32 48 57 39 30 12 11 8 355 352 348 345 332 332 336 345 351 4 360 350 356 349 342 342 337 342 339
114 108 96 82 60 50 58 51 32 9 6 18 18 11 351 332 345 352 333 326 339 352 358 354 352 357 347 343 341 340 330 332
112 106 96 82 63 55 52 43 10 2 6 9 17 18 3 8 351 350 341 334 338 358 353 350 344 345 351 339 338 337 336 317
122 114 105 96 75 62 30 25 350 356 13 19 19 21 17 7 345 333 346 348 350 352 347 346 341 335 345 334 330 337 331 329
120 120 113 99 91 94 39 14 360 359 31 25 24 21 10 356 329 329 348 355 327 330 333 338 337 335 344 335 329 327 327 329
120 114 112 105 98 123 41 19 25 36 41 38 20 9 11 357 341 343 338 332 332 341 322 328 334 346 345 338 330 327 327 333
127 131 129 109 88 157 36 54 59 47 47 37 31 1 354 350 344 349 345 325 326 323 326 334 335 348 347 344 336 330 332 328
140 132 121 115 57 79 83 57 59 47 42 30 25 1 351 344 346 339 336 318 314 322 326 341 346 349 350 351 343 342 338 329
134 130 139 140 87 100 89 61 63 56 49 35 16 9 346 345 349 338 330 324 317 327 342 1 353 352 352 353 345 343 343 359
129 132 140 101 111 112 88 65 65 58 53 40 16 3 349 343 341 335 332 330 333 335 16 14 349 355 354 353 351 348 347 11
139 138 105 112 113 110 97 78 72 56 52 33 17 357 346 339 334 336 343 342 346 348 43 13 356 358 358 356 358 351 349 9
139 140 125 124 102 93 92 82 70 56 42 30 3 348 339 343 352 346 351 356 359 2 29 17 7 1 1 2 5 351 349 349
136 118 127 113 102 102 94 78 62 58 39 28 359 348 346 357 1 355 1 4 2 7 12 15 9 356 5 8 12 351 349 344
136 128 120 110 98 104 90 84 76 55 37 19 0 358 358 13 11 6 3 6 360 360 11 9 7 351 4 7 10 349 346 342
129 114 117 102 100 92 95 78 65 56 34 4 358 4 7 23 21 9 5 357 357 359 11 3 3 354 359 5 10 349 349 345